| time (UTC) | temp F | wind direction | speed MPH | gust MPH | rain 1hr in | rain 24hr in | rain mn in | humidity % | barometer mb |
| 20260504050003 | 46 | 242 | 0.0 | 1.0 | 0.00 | 0.00 | 0.00 | 59 | 1014.0 |
| 20260504045003 | 47 | 264 | 0.0 | 1.0 | 0.00 | 0.00 | 0.00 | 59 | 1014.1 |
| 20260504044503 | 47 | 276 | 0.0 | 1.0 | 0.00 | 0.00 | 0.00 | 59 | 1014.1 |
| 20260504044003 | 47 | 258 | 0.0 | 1.0 | 0.00 | 0.00 | 0.00 | 59 | 1014.1 |
| 20260504042005 | 47 | 257 | 0.0 | 1.0 | 0.00 | 0.00 | 0.00 | 58 | 1014.1 |
| 20260504041003 | 47 | 251 | 0.0 | 0.0 | 0.00 | 0.00 | 0.00 | 57 | 1014.1 |
| 20260504040004 | 48 | 251 | 0.0 | 1.0 | 0.00 | 0.00 | 0.00 | 57 | 1014.1 |
| 20260504035503 | 48 | 243 | 0.0 | 0.0 | 0.00 | 0.00 | 0.00 | 57 | 1014.1 |
| 20260504034504 | 48 | 243 | 0.0 | 0.0 | 0.00 | 0.00 | 0.00 | 57 | 1013.9 |
| 20260504034004 | 48 | 243 | 0.0 | 0.0 | 0.00 | 0.00 | 0.00 | 56 | 1013.9 |
| 20260504033003 | 49 | 243 | 0.0 | 1.0 | 0.00 | 0.00 | 0.00 | 54 | 1013.9 |
| 20260504032503 | 49 | 269 | 0.0 | 1.0 | 0.00 | 0.00 | 0.00 | 53 | 1013.8 |
| 20260504032004 | 49 | 269 | 0.0 | 0.0 | 0.00 | 0.00 | 0.00 | 52 | 1013.8 |
| 20260504025503 | 49 | 234 | 0.0 | 0.0 | 0.00 | 0.00 | 0.00 | 54 | 1013.7 |
| 20260504025004 | 49 | 234 | 0.0 | 0.0 | 0.00 | 0.00 | 0.00 | 54 | 1013.7 |
| 20260504024503 | 49 | 234 | 0.0 | 1.0 | 0.00 | 0.00 | 0.00 | 54 | 1013.7 |
| 20260504023003 | 50 | 234 | 0.0 | 1.0 | 0.00 | 0.00 | 0.00 | 52 | 1013.6 |
| 20260504022503 | 50 | 265 | 0.0 | 1.0 | 0.00 | 0.00 | 0.00 | 53 | 1013.6 |
| 20260504022003 | 50 | 234 | 0.0 | 1.0 | 0.00 | 0.00 | 0.00 | 52 | 1013.6 |
| 20260504021504 | 50 | 234 | 0.0 | 0.0 | 0.00 | 0.00 | 0.00 | 52 | 1013.6 |
| 20260504020004 | 51 | 234 | 0.0 | 0.0 | 0.00 | 0.00 | 0.00 | 51 | 1013.6 |
| 20260504015003 | 51 | 234 | 0.0 | 0.0 | 0.00 | 0.00 | 0.00 | 51 | 1013.5 |
| 20260504013504 | 52 | 234 | 0.0 | 0.0 | 0.00 | 0.00 | 0.00 | 50 | 1013.4 |
| 20260504011504 | 53 | 234 | 0.0 | 1.0 | 0.00 | 0.00 | 0.00 | 46 | 1013.3 |
| 20260504010504 | 53 | 234 | 0.0 | 0.0 | 0.00 | 0.00 | 0.00 | 45 | 1013.3 |
| 20260504004003 | 55 | 234 | 0.0 | 0.0 | 0.00 | 0.00 | 0.00 | 43 | 1013.1 |
| 20260504003004 | 56 | 234 | 0.0 | 1.0 | 0.00 | 0.00 | 0.00 | 41 | 1013.0 |
| 20260504002504 | 56 | 220 | 0.0 | 2.0 | 0.00 | 0.00 | 0.00 | 41 | 1012.9 |
| 20260504001504 | 57 | 251 | 1.0 | 3.0 | 0.00 | 0.00 | 0.00 | 40 | 1012.9 |
| 20260504000003 | 58 | 242 | 1.0 | 3.0 | 0.00 | 0.00 | 0.00 | 39 | 1012.8 |
| 20260503235504 | 58 | 222 | 1.0 | 5.0 | 0.00 | 0.00 | 0.00 | 38 | 1012.7 |
| 20260503234503 | 59 | 254 | 1.0 | 5.0 | 0.00 | 0.00 | 0.00 | 37 | 1012.6 |
| 20260503234005 | 59 | 259 | 1.0 | 5.0 | 0.00 | 0.00 | 0.00 | 36 | 1012.5 |
| 20260503233004 | 59 | 299 | 3.0 | 8.0 | 0.00 | 0.00 | 0.00 | 36 | 1012.4 |
| 20260503231503 | 60 | 263 | 3.0 | 8.0 | 0.00 | 0.00 | 0.00 | 35 | 1012.4 |
| 20260503230503 | 61 | 281 | 3.0 | 8.0 | 0.00 | 0.00 | 0.00 | 34 | 1012.5 |
| 20260503230004 | 61 | 302 | 5.0 | 12.0 | 0.00 | 0.00 | 0.00 | 34 | 1012.4 |
| 20260503225503 | 61 | 288 | 3.0 | 8.0 | 0.00 | 0.00 | 0.00 | 34 | 1012.4 |
| 20260503224003 | 61 | 302 | 3.0 | 16.0 | 0.00 | 0.00 | 0.00 | 34 | 1012.4 |
| 20260503222504 | 60 | 248 | 3.0 | 8.0 | 0.00 | 0.00 | 0.00 | 35 | 1012.4 |
| 20260503221504 | 61 | 308 | 4.0 | 8.0 | 0.00 | 0.00 | 0.00 | 34 | 1012.5 |
| 20260503221004 | 61 | 289 | 5.0 | 9.0 | 0.00 | 0.00 | 0.00 | 33 | 1012.5 |
| 20260503220003 | 61 | 303 | 3.0 | 6.0 | 0.00 | 0.00 | 0.00 | 34 | 1012.6 |
| 20260503215504 | 60 | 254 | 2.0 | 8.0 | 0.00 | 0.00 | 0.00 | 36 | 1012.6 |
| 20260503215004 | 61 | 253 | 6.0 | 10.0 | 0.00 | 0.00 | 0.00 | 33 | 1012.5 |
| 20260503212504 | 61 | 286 | 5.0 | 12.0 | 0.00 | 0.00 | 0.00 | 35 | 1012.4 |
| 20260503211004 | 61 | 286 | 5.0 | 9.0 | 0.00 | 0.00 | 0.00 | 34 | 1012.4 |
| 20260503210004 | 60 | 309 | 3.0 | 10.0 | 0.00 | 0.00 | 0.00 | 35 | 1012.4 |
| 20260503205004 | 60 | 291 | 6.0 | 9.0 | 0.00 | 0.00 | 0.00 | 35 | 1012.5 |
| 20260503204004 | 60 | 316 | 7.0 | 15.0 | 0.00 | 0.00 | 0.00 | 34 | 1012.6 |
| 20260503203003 | 61 | 288 | 3.0 | 10.0 | 0.00 | 0.00 | 0.00 | 35 | 1012.5 |
| 20260503202003 | 60 | 301 | 7.0 | 13.0 | 0.00 | 0.00 | 0.00 | 34 | 1012.6 |
| 20260503201503 | 60 | 308 | 6.0 | 16.0 | 0.00 | 0.00 | 0.00 | 35 | 1012.8 |
| 20260503200504 | 61 | 290 | 6.0 | 18.0 | 0.00 | 0.00 | 0.00 | 33 | 1012.8 |
| 20260503200004 | 61 | 240 | 7.0 | 12.0 | 0.00 | 0.00 | 0.00 | 35 | 1012.8 |
| 20260503194504 | 60 | 281 | 7.0 | 15.0 | 0.00 | 0.00 | 0.00 | 35 | 1012.9 |
| 20260503194004 | 60 | 304 | 10.0 | 15.0 | 0.00 | 0.00 | 0.00 | 35 | 1013.0 |
| 20260503193503 | 59 | 319 | 7.0 | 14.0 | 0.00 | 0.00 | 0.00 | 36 | 1013.1 |
| 20260503192503 | 59 | 290 | 6.0 | 13.0 | 0.00 | 0.00 | 0.00 | 35 | 1013.1 |
| 20260503191003 | 60 | 294 | 6.0 | 13.0 | 0.00 | 0.00 | 0.00 | 36 | 1013.4 |
| 20260503185504 | 58 | 263 | 5.0 | 12.0 | 0.00 | 0.00 | 0.00 | 36 | 1013.6 |
| 20260503184503 | 59 | 312 | 7.0 | 16.0 | 0.00 | 0.00 | 0.00 | 34 | 1013.7 |
| 20260503183004 | 58 | 300 | 6.0 | 13.0 | 0.00 | 0.00 | 0.00 | 35 | 1013.7 |
| 20260503182505 | 58 | 228 | 6.0 | 12.0 | 0.00 | 0.00 | 0.00 | 36 | 1013.8 |
| 20260503182005 | 57 | 303 | 6.0 | 12.0 | 0.00 | 0.00 | 0.00 | 34 | 1013.8 |
| 20260503181504 | 57 | 312 | 9.0 | 17.0 | 0.00 | 0.00 | 0.00 | 34 | 1013.8 |
| 20260503180503 | 57 | 302 | 3.0 | 14.0 | 0.00 | 0.00 | 0.00 | 37 | 1014.0 |
| 20260503175003 | 57 | 273 | 8.0 | 15.0 | 0.00 | 0.00 | 0.00 | 36 | 1014.1 |
| 20260503174504 | 57 | 249 | 5.0 | 12.0 | 0.00 | 0.00 | 0.00 | 38 | 1014.2 |
| 20260503173503 | 56 | 321 | 3.0 | 16.0 | 0.00 | 0.00 | 0.00 | 38 | 1014.2 |
| 20260503172504 | 55 | 280 | 8.0 | 14.0 | 0.00 | 0.00 | 0.00 | 36 | 1014.3 |
| 20260503171004 | 56 | 261 | 8.0 | 17.0 | 0.00 | 0.00 | 0.00 | 39 | 1014.3 |
| 20260503151004 | 50 | 304 | 7.0 | 14.0 | 0.00 | 0.00 | 0.00 | 44 | 1015.4 |
| 20260503090504 | 41 | 265 | 3.0 | 6.0 | 0.00 | 0.00 | 0.00 | 61 | 1013.9 |
| 20260503081503 | 43 | 272 | 5.0 | 8.0 | 0.00 | 0.00 | 0.00 | 59 | 1013.5 |